GW6661 Weather Reports


time (UTC)temp
C
wind
direction
speed
KPH
gust
KPH
rain 1hr
cm
rain 24hr
cm
rain mn
cm
humidity
%
barometer
mb
20260503055003 4 64 1.6 1.6 0.00 0.00 0.00 97 1015.6
20260503054522 4 72 1.6 1.6 0.00 0.00 0.00 97 1015.6
20260503054003 4 53 1.6 1.6 0.00 0.00 0.00 97 1015.6
20260503053503 4 49 3.2 3.2 0.00 0.00 0.00 97 1015.5
20260503053003 4 70 1.6 1.6 0.00 0.00 0.00 97 1015.6
20260503052522 4 69 0.0 1.6 0.00 0.00 0.00 96 1015.5
20260503052003 4 52 0.0 1.6 0.00 0.00 0.00 97 1015.7
20260503051503 4 36 1.6 3.2 0.00 0.00 0.00 97 1015.7
20260503051003 4 50 3.2 3.2 0.00 0.00 0.00 97 1015.7
20260503050522 4 54 3.2 3.2 0.00 0.00 0.00 96 1015.4
20260503050003 4 47 1.6 3.2 0.00 0.00 0.00 96 1015.5
20260503045503 4 57 1.6 1.6 0.00 0.00 0.00 96 1015.5
20260503045041 5 49 1.6 3.2 0.00 0.00 0.00 96 1015.3
20260503044503 5 70 1.6 3.2 0.00 0.00 0.00 96 1015.3
20260503044003 5 63 1.6 3.2 0.00 0.00 0.00 96 1015.3
20260503043503 5 92 1.6 1.6 0.00 0.00 0.00 96 1015.3
20260503043003 5 44 1.6 3.2 0.00 0.00 0.00 96 1015.3
20260503042503 5 85 1.6 1.6 0.00 0.00 0.00 96 1015.3
20260503042003 5 76 0.0 1.6 0.00 0.00 0.00 96 1015.2
20260503041503 5 69 1.6 1.6 0.00 0.00 0.00 96 1015.3
20260503041022 5 66 1.6 1.6 0.00 0.00 0.00 96 1015.1
20260503040503 5 55 1.6 3.2 0.00 0.00 0.00 96 1015.2
20260503040003 5 63 3.2 3.2 0.00 0.00 0.00 96 1015.1
20260503035522 5 48 1.6 3.2 0.00 0.00 0.15 96 1015.1
20260503035003 5 78 1.6 1.6 0.00 0.00 0.15 96 1015.1
20260503034503 5 62 1.6 3.2 0.00 0.00 0.15 96 1015.0
20260503034003 5 45 0.0 1.6 0.00 0.00 0.15 96 1015.1
20260503033503 5 77 3.2 3.2 0.00 0.00 0.15 96 1015.0
20260503033022 5 60 0.0 1.6 0.00 0.00 0.15 96 1015.0
20260503032541 5 60 0.0 0.0 0.00 0.00 0.15 96 1015.1
20260503032003 6 89 0.0 1.6 0.00 0.00 0.15 96 1014.9
20260503031522 6 63 1.6 1.6 0.00 0.00 0.15 96 1014.9
20260503031003 6 30 3.2 3.2 0.00 0.00 0.15 96 1014.8
20260503030503 6 55 0.0 1.6 0.00 0.00 0.15 95 1014.9
20260503030004 6 35 0.0 3.2 0.00 0.00 0.15 95 1014.5
20260503025504 6 49 1.6 3.2 0.00 0.00 0.15 95 1014.3
20260503025004 6 54 3.2 3.2 0.00 0.00 0.15 95 1014.5
20260503024504 6 85 1.6 1.6 0.00 0.00 0.15 95 1014.4
20260503024004 6 79 1.6 1.6 0.00 0.00 0.15 95 1014.1
20260503023504 6 80 0.0 1.6 0.00 0.00 0.15 95 1014.2
20260503023004 6 62 0.0 1.6 0.00 0.00 0.15 95 1014.3
20260503022503 6 65 0.0 1.6 0.00 0.00 0.15 95 1014.3
20260503022003 6 69 0.0 1.6 0.00 0.00 0.15 95 1014.4
20260503021503 7 55 0.0 1.6 0.00 0.00 0.15 95 1014.4
20260503021003 7 30 0.0 1.6 0.00 0.00 0.15 95 1014.0
20260503020503 7 49 0.0 1.6 0.00 0.00 0.15 95 1013.9
20260503020003 7 64 0.0 0.0 0.00 0.00 0.15 95 1014.0
20260503015522 7 43 1.6 1.6 0.00 0.00 0.15 95 1013.9
20260503015003 7 41 3.2 3.2 0.00 0.00 0.15 94 1014.0
20260503014503 7 135 0.0 0.0 0.00 0.00 0.15 94 1013.6
20260503014003 7 76 0.0 1.6 0.00 0.00 0.15 94 1013.9
20260503013503 7 48 0.0 1.6 0.00 0.00 0.15 94 1013.8
20260503013022 7 41 0.0 1.6 0.00 0.00 0.15 94 1013.6
20260503012503 8 76 0.0 0.0 0.00 0.00 0.15 93 1013.3
20260503012003 8 38 0.0 1.6 0.00 0.00 0.15 93 1013.7
20260503011503 8 113 0.0 1.6 0.00 0.00 0.15 93 1013.5
20260503011003 8 107 0.0 3.2 0.00 0.00 0.15 93 1013.4
20260503010522 8 76 0.0 0.0 0.00 0.00 0.15 92 1013.4
20260503010003 8 69 0.0 1.6 0.00 0.00 0.15 91 1013.3
20260503005503 8 110 0.0 0.0 0.00 0.00 0.15 91 1013.3
20260503005041 8 53 0.0 1.6 0.00 0.00 0.15 91 1013.1
20260503004503 9 44 0.0 1.6 0.00 0.00 0.15 90 1013.1
20260503004003 9 64 0.0 0.0 0.00 0.00 0.15 90 1012.9
20260503003522 9 55 0.0 1.6 0.00 0.00 0.15 89 1012.9
20260503003003 10 45 1.6 1.6 0.00 0.00 0.15 89 1012.9
20260503002503 10 33 3.2 3.2 0.00 0.00 0.15 89 1012.9
20260503002022 10 72 0.0 0.0 0.00 0.00 0.15 88 1012.6
20260503001522 10 22 0.0 0.0 0.00 0.00 0.15 87 1012.7
20260503001003 10 22 0.0 0.0 0.00 0.00 0.15 86 1012.6
20260503000522 11 44 0.0 0.0 0.00 0.00 0.15 85 1012.4
20260503000003 11 299 0.0 0.0 0.00 0.00 0.15 84 1012.4
20260502235503 11 326 0.0 0.0 0.00 0.00 0.15 83 1012.3
20260502235003 11 48 0.0 1.6 0.00 0.00 0.15 81 1012.3
20260502234503 12 13 0.0 0.0 0.00 0.00 0.15 80 1012.0
20260502234003 12 13 0.0 0.0 0.00 0.00 0.15 79 1012.0
20260502233503 12 28 0.0 0.0 0.00 0.00 0.15 78 1012.0
20260502233003 12 50 0.0 0.0 0.00 0.00 0.15 77 1011.8
20260502232503 12 50 0.0 0.0 0.00 0.00 0.15 74 1011.6
20260502232003 13 311 0.0 0.0 0.00 0.00 0.15 74 1011.7
20260502231503 13 157 0.0 0.0 0.00 0.00 0.15 73 1011.3
20260502231003 13 129 0.0 0.0 0.00 0.00 0.15 73 1011.4
20260502230503 13 185 0.0 1.6 0.00 0.00 0.15 70 1011.4
20260502230003 14 110 1.6 1.6 0.00 0.00 0.15 67 1011.6
20260502225503 14 69 3.2 3.2 0.00 0.00 0.15 66 1011.5
20260502225022 14 76 0.0 1.6 0.00 0.00 0.15 68 1011.4
20260502224503 14 98 1.6 1.6 0.00 0.00 0.15 67 1011.5
20260502224003 13 91 1.6 3.2 0.00 0.00 0.15 68 1011.5
20260502223503 13 73 3.2 4.8 0.00 0.00 0.15 63 1011.5
20260502223022 14 70 1.6 3.2 0.00 0.00 0.15 64 1011.3
20260502222503 14 42 3.2 3.2 0.00 0.00 0.15 63 1011.5
20260502222003 14 77 1.6 3.2 0.00 0.00 0.15 64 1011.4
20260502221503 13 67 3.2 4.8 0.00 0.00 0.15 61 1011.4
20260502221003 13 48 4.8 4.8 0.00 0.00 0.15 61 1011.4
20260502220522 13 56 4.8 4.8 0.00 0.00 0.15 62 1011.5
20260502220004 13 62 3.2 6.4 0.00 0.00 0.15 62 1011.3
20260502215504 13 76 3.2 4.8 0.00 0.00 0.15 62 1011.4
20260502215004 13 63 3.2 4.8 0.00 0.00 0.15 62 1011.1
20260502214504 13 62 3.2 6.4 0.00 0.00 0.15 62 1011.3
20260502214004 13 38 3.2 4.8 0.00 0.00 0.15 61 1011.1
20260502213504 13 42 4.8 6.4 0.00 0.00 0.15 61 1011.2
20260502213004 14 34 4.8 8.0 0.00 0.00 0.15 61 1011.0
20260502212503 14 47 6.4 9.7 0.00 0.00 0.15 60 1010.9
20260502212004 14 58 4.8 4.8 0.00 0.00 0.15 61 1011.2
20260502211503 14 41 4.8 9.7 0.00 0.00 0.15 61 1011.1
20260502211022 14 39 4.8 9.7 0.00 0.00 0.15 60 1011.1
20260502210503 14 34 4.8 6.4 0.00 0.00 0.15 59 1011.2
20260502210003 14 29 6.4 9.7 0.00 0.00 0.15 60 1011.2
20260502205503 14 37 3.2 6.4 0.00 0.00 0.15 63 1011.4
20260502205003 15 46 6.4 8.0 0.00 0.00 0.15 62 1011.2
20260502204503 14 49 0.0 4.8 0.00 0.00 0.15 66 1011.3
20260502204003 14 53 1.6 4.8 0.00 0.00 0.15 75 1011.2
20260502203503 14 71 0.0 3.2 0.00 0.00 0.15 77 1011.1
20260502203003 14 17 0.0 0.0 0.00 0.00 0.15 76 1011.2
20260502202503 14 313 0.0 3.2 0.00 0.00 0.15 75 1011.1
20260502202022 14 119 0.0 1.6 0.00 0.00 0.15 76 1010.9
20260502201503 14 99 3.2 4.8 0.00 0.00 0.15 75 1011.1
20260502201003 15 84 3.2 3.2 0.00 0.00 0.15 76 1011.2
20260502200503 14 196 0.0 3.2 0.00 0.00 0.15 76 1011.4
20260502200003 15 109 3.2 3.2 0.00 0.00 0.15 75 1011.0
20260502195503 15 95 1.6 3.2 0.00 0.00 0.15 71 1010.9
20260502195003 15 119 0.0 3.2 0.00 0.00 0.15 73 1011.1
20260502194503 15 89 0.0 1.6 0.00 0.00 0.15 73 1011.0
20260502194003 15 94 0.0 3.2 0.00 0.00 0.15 74 1011.0
20260502193503 15 98 3.2 4.8 0.00 0.00 0.15 73 1011.3
20260502193003 15 80 1.6 3.2 0.00 0.00 0.15 73 1011.3
20260502192503 15 104 0.0 6.4 0.00 0.00 0.15 70 1011.2
20260502192003 15 48 1.6 3.2 0.00 0.00 0.15 64 1011.2
20260502191503 15 120 0.0 3.2 0.00 0.00 0.15 67 1011.6
20260502191003 15 47 1.6 3.2 0.00 0.00 0.15 65 1011.3
20260502190522 15 122 0.0 3.2 0.00 0.00 0.15 68 1011.5
20260502190003 15 100 1.6 3.2 0.00 0.00 0.15 67 1011.6
20260502185503 15 353 0.0 3.2 0.00 0.00 0.15 66 1011.5
20260502185041 15 118 3.2 4.8 0.00 0.00 0.15 65 1011.6
20260502184522 15 99 1.6 3.2 0.00 0.00 0.15 64 1011.3
20260502184041 15 78 3.2 9.7 0.00 0.00 0.15 62 1011.4
20260502183503 15 73 1.6 6.4 0.00 0.00 0.15 65 1011.5
20260502183003 15 44 4.8 8.0 0.00 0.00 0.15 65 1011.6
20260502182503 15 29 4.8 8.0 0.00 0.00 0.15 67 1011.6
20260502182003 14 32 4.8 11.3 0.00 0.00 0.15 67 1012.0
20260502181522 14 26 4.8 9.7 0.00 0.00 0.15 65 1011.9
20260502181003 15 56 9.7 14.5 0.00 0.00 0.15 64 1011.7
20260502180503 15 57 6.4 6.4 0.00 0.00 0.15 68 1011.6
20260502170503 13 62 3.2 11.3 0.00 0.00 0.15 73 1012.2
20260502164003 14 39 4.8 8.0 0.00 0.00 0.15 75 1012.4
20260502163522 14 151 4.8 8.0 0.00 0.00 0.15 76 1012.6
20260502163022 14 62 3.2 9.7 0.00 0.00 0.15 72 1012.5
20260502162503 13 60 4.8 11.3 0.00 0.00 0.15 73 1012.7
20260502162022 13 51 4.8 6.4 0.00 0.00 0.15 78 1012.8
20260502161503 13 48 6.4 14.5 0.00 0.00 0.15 74 1012.8
20260502161003 13 55 4.8 11.3 0.00 0.00 0.15 76 1013.3
20260502160522 13 57 6.4 8.0 0.00 0.00 0.15 79 1013.2
20260502152003 12 48 3.2 4.8 0.00 0.03 0.15 85 1013.5
20260502151503 12 36 6.4 6.4 0.00 0.03 0.15 83 1012.9
20260502151003 12 58 3.2 4.8 0.00 0.03 0.15 84 1013.1
20260502150522 12 32 3.2 4.8 0.00 0.03 0.15 86 1013.4
20260502130504 11 43 4.8 6.4 0.05 0.03 0.08 86 1012.4
20260502123524 11 52 4.8 6.4 0.00 0.00 0.05 85 1012.9
20260502123004 11 56 6.4 6.4 0.00 0.03 0.05 86 1012.7
20260502122504 11 47 3.2 6.4 0.00 0.03 0.05 86 1012.6
20260502122004 11 45 6.4 8.0 0.00 0.03 0.05 86 1012.6
20260502121504 11 32 4.8 6.4 0.00 0.03 0.05 88 1012.8
20260502121004 11 45 3.2 6.4 0.00 0.03 0.05 89 1012.5
20260502120504 11 40 4.8 6.4 0.05 0.03 0.05 90 1012.1
20260502115504 11 53 4.8 6.4 0.00 0.03 0.05 90 1012.4
20260502115023 11 42 3.2 6.4 0.00 0.03 0.05 90 1012.1
20260502114503 11 54 4.8 6.4 0.05 0.03 0.05 90 1012.5
20260502114004 11 45 3.2 4.8 0.05 0.03 0.05 90 1012.6
20260502113542 11 42 3.2 4.8 0.00 0.03 0.03 90 1012.4
20260502113004 11 51 3.2 4.8 0.00 0.03 0.03 90 1012.5
20260502112503 11 35 3.2 3.2 0.00 0.03 0.03 90 1012.5
20260502112022 11 54 3.2 4.8 0.05 0.03 0.03 90 1012.4
20260502111503 11 77 4.8 6.4 0.05 0.03 0.03 90 1012.1
20260502111003 11 53 3.2 4.8 0.00 0.03 0.03 90 1012.7
20260502110503 11 63 3.2 4.8 0.00 0.03 0.03 89 1012.2
20260502110003 11 67 4.8 4.8 0.05 0.03 0.03 89 1012.2
20260502105503 11 71 3.2 3.2 0.05 0.03 0.03 89 1012.6
20260502105003 11 58 3.2 3.2 0.00 0.00 0.00 90 1012.6
20260502104503 11 48 3.2 4.8 0.05 0.00 0.00 88 1012.6
20260502104003 11 62 3.2 4.8 0.05 0.00 0.00 88 1012.6
20260502103503 11 68 3.2 6.4 0.00 0.00 0.00 88 1012.6
20260502103003 11 39 4.8 4.8 0.00 0.00 0.00 88 1012.4
20260502102503 11 53 4.8 6.4 0.00 0.00 0.00 87 1012.5
20260502101504 11 58 3.2 6.4 0.00 0.00 0.00 88 1012.4
20260502101004 11 54 3.2 8.0 0.00 0.00 0.00 90 1012.4
20260502100503 11 50 6.4 6.4 0.00 0.00 0.00 91 1012.6
20260502091504 11 47 3.2 4.8 0.00 0.00 0.00 92 1012.6
20260502091004 11 38 4.8 6.4 0.00 0.00 0.00 91 1012.5
20260502090504 11 56 3.2 3.2 0.00 0.00 0.00 91 1012.8
20260502071503 10 53 1.6 3.2 0.00 0.00 0.00 94 1011.4
20260502071003 10 59 0.0 1.6 0.00 0.00 0.00 94 1011.5
20260502070503 10 57 0.0 1.6 0.00 0.00 0.00 94 1011.4
20260502070004 10 59 1.6 1.6 0.00 0.00 0.00 94 1011.4
20260502065504 10 71 1.6 3.2 0.00 0.00 0.00 94 1011.3
20260502065004 10 57 1.6 1.6 0.00 0.00 0.00 94 1011.5
20260502064504 10 42 3.2 3.2 0.00 0.00 0.00 94 1011.6
20260502064004 10 50 1.6 3.2 0.00 0.00 0.00 94 1011.7
20260502063504 10 60 0.0 1.6 0.00 0.00 0.00 94 1011.6
20260502063004 10 66 0.0 1.6 0.00 0.00 0.00 94 1011.9